Regional Weather Roundup
Issued by NWS Upton, NY

Current Version | Previous Version | Text Only | Print | Product List | Glossary On
Versions: 1 2 3 4 5 6 7 8 9 10 11 12 13 14 15 16 17 18 19 20 21 22 23 24 25 26 27 28 29 30 31 32 33 34 35 36 37 38 39 40 41 42 43 44 45 46 47 48 49 50
000
ASUS41 KOKX 011405
RWROKX

REGIONAL WEATHER ROUNDUP
NATIONAL WEATHER SERVICE NEW YORK NY
1000 AM EDT WED OCT 01 2014

NOTE: "FAIR" INDICATES FEW OR NO CLOUDS BELOW 12,000 FEET WITH NO
SIGNIFICANT WEATHER AND/OR OBSTRUCTIONS TO VISIBILITY.

NYZ071-072-176-178-NJZ106-104-011500-
NEW YORK CITY METRO AREA


CITY           SKY/WX    TMP DP  RH WIND       PRES   REMARKS
CENTRAL PARK   CLOUDY    61  57  87 VRB5      30.07R FOG
LAGUARDIA APRT CLOUDY    63  58  83 NE10G21   30.04R
KENNEDY INTL   CLOUDY    64  58  80 N9        30.04R
NEWARK/LIBERTY DRIZZLE   62  58  86 N12       30.05R
BRNX BOT. GARD   N/A     61  59  94 NE5       30.06R
TETERBORO      LGT RAIN  62  57  83 N8        30.04R
$$

NYZ177-179-078>081-011500-
LONG ISLAND NEW YORK

CITY           SKY/WX    TMP DP  RH WIND       PRES   REMARKS
FARMINGDALE    CLOUDY    62  59  90 NE10      30.03R
ISLIP          CLOUDY    62  59  90 NE9       30.01R
SHIRLEY        CLOUDY    61  59  93 VRB5      30.03R
WESTHAMPTON    CLOUDY    61  58  90 N10       30.04R
MONTAUK POINT    N/A     60  58  92 N10       30.03R
$$

NYZ052-065-067-011500-
HUDSON VALLEY

CITY           SKY/WX    TMP DP  RH WIND       PRES   REMARKS
WHITE PLAINS   CLOUDY    61  57  87 N6        30.04R
NEWBURGH       CLOUDY    59  59 100 NE7       30.09R FOG
MONTGOMERY     LGT RAIN  59  57  93 N7        30.08R FOG
POUGHKEEPSIE   CLOUDY    60  58  92 N3        30.07R FOG
ALBANY         LGT RAIN  62  57  83 N5        30.10R
$$

NJZ001-105-106-008-010-013-015-019>022-104-011500-
NEW JERSEY

CITY           SKY/WX    TMP DP  RH WIND       PRES   REMARKS
NEWARK/LIBERTY DRIZZLE   62  58  86 N12       30.05R
TETERBORO      LGT RAIN  62  57  83 N8        30.04R
CALDWELL       CLOUDY    61  56  83 VRB3      30.06R HAZE
MORRISTOWN     CLOUDY    64  59  82 NE8       30.06R
SOMERVILLE     CLOUDY    65  56  72 N6        30.03R
LINDEN         LGT RAIN  66  62  86 NE7       30.06R
SUSSEX         CLOUDY    63  56  78 NE7       30.07S
ANDOVER          N/A     62  56  80 VRB6      30.07R
TRENTON        PTSUNNY   66  56  70 NE7       30.04R
MILLVILLE      CLOUDY    64  59  83 NE8       30.02R
ATLANTIC CITY  CLOUDY    64  61  90 N7        30.02R
WRIGHTSTOWN    CLOUDY    64  60  86 N10       30.01R
TOMS RIVER     CLOUDY    61  61 100 N6        30.03R
BELMAR         CLOUDY    61  55  82 N8        30.03R
$$

PAZ047>061-062-071-011500-
EASTERN PENNSYLVANIA

CITY           SKY/WX    TMP DP  RH WIND       PRES   REMARKS
PHILADELPHIA   PTSUNNY   67  57  70 E8        30.04R
ALLENTOWN      CLOUDY    64  56  75 NE5       30.06R
SCRANTON       CLOUDY    63  55  75 VRB5      30.06R
$$

CTZ002-004>006-009-010-012-RIZ004-006-007-MAZ004-011-015-011500-
SOUTHERN NEW ENGLAND
 IN CT

CITY           SKY/WX    TMP DP  RH WIND       PRES   REMARKS
BRADLEY INTL   LGT RAIN  60  56  86 N8        30.07R
HARTFORD       RAIN      58  56  93 N9        30.06S FOG
DANBURY        LGT RAIN  59  56  89 NE6       30.07R
WTRBRY/OXFORD  LGT RAIN  57  52  82 NE128     30.07R FOG
BRIDGEPORT     LGT RAIN  60  58  92 N12       30.04R
MERIDEN        LGT RAIN  59  56  89 N10       30.06R
NEW HAVEN      CLOUDY    62  57  83 N13       30.04R
CHESTER        HVY RAIN  57  55  94 N6        30.05R
GROTON         CLOUDY    59  57  93 N13       30.02S
WILLIMANTIC    HVY RAIN  58  56  93 N8        30.06R FOG

 IN RI

CITY           SKY/WX    TMP DP  RH WIND       PRES   REMARKS
PROVIDENCE     DRIZZLE   59  57  93 N14       30.05R
BLOCK ISLAND   CLOUDY    61  55  82 NE13G20   30.01S
WESTERLY       LGT RAIN  59  57  93 N10G17    30.03S FOG

 IN MA

CITY           SKY/WX    TMP DP  RH WIND       PRES   REMARKS
BOSTON         LGT RAIN  57  56  96 N16       30.07R FOG
WORCESTER      FOG       54  54 100 NE9       30.09R VSB 1/4
WESTFIELD      LGT RAIN  59  56  89 N7        30.08R
PROVINCETOWN   CLOUDY    61  59  94 NE13G20   30.03S
NANTUCKET      CLOUDY    63  61  93 NE17      29.97R FOG
$$

ANZ330-335-338-340-345-350-353-355-011500-
COASTAL MARINE OBSERVATIONS


STATION/POSITION TIME  SKY/WX   TEMP    WIND        PRES    VSBY  WAVE
                                AIR SEA DIR/SP/G                  HT/PER
                 (UTC)          (F)     (DEG/KT/KT) (MB)    (MI)  (FT/S)
NY HARB ENTRANCE NOT AVBL
4S FIRE IS       1400               68                N/A           3/ 6
20S FIRE ISLAND  1400            63 67   50/ 14/ 16 1015.8          4/ 6
23SW MTP         1400                                 N/A           4/ 6
HUDSON CANYON    1400            67 70   30/ 17/ 21 1014.1          6/ 6
EXECUTION ROCKS  1400            62 68   30/ 12/ 16   N/A
WESTERN LI SOUND 1400            63      40/ 12/ 14   N/A           1/ 4
CENTRAL LI SOUND 1400            60 68   10/ 14/ 16   N/A           2/ 4
EASTERN LI SOUND 1300            61 67   20/ 14/ 17   N/A
ROBBINS REEF     1400            62      20/ 10/ 12 1016.0
$$


>>>>>>>>>>>>>>>>>>>>>>>>>>>> KEY <<<<<<<<<<<<<<<<<<<<<<<<<<<
>                                                          <
>     SKY/WX - SKY CONDITION/PRESENT WEATHER               <
>     TMP    - TEMPERATURE IN FAHRENHEIT                   <
>     DP     - DEWPOINT IN FAHRENHEIT                      <
>     RH     - RELATIVE HUMIDITY IN PERCENT                <
>     WIND   - DIRECTION AND SPEED IN MPH                  <
>     PRES   - MEAN SEA LEVEL PRESSURE IN INCHES OF HG     <
>     WCI    - WIND CHILL INDEX                            <
>     VSB    - VISIBILITY IN MILES                         <
>     HX     - HEAT INDEX                                  <
>     TC     - TEMPERATURE IN CELSIUS                      <
>     VRB    - VARIABLE WIND DIRECTION                     <
>                                                          <
>>>>>>>>>>>>>>>>>>>>>>>>>>>> KEY <<<<<<<<<<<<<<<<<<<<<<<<<<<




USA.gov is the U.S. government's official web portal to all federal, state and local government web resources and services.